Location: Arroyo de Valdeoliva
(40.1604°N, 4.9878°W)
Time: 06:45:41
(UTC+00:00)

Cosmos 1076 Rocket - Visible Passes

Search period start: 11 March 2026 00:00
Search period end: 21 March 2026 00:00
Orbit: 580 x 604 km, 82.5° (Epoch: 10 March)

Date Brightness Start Highest point End Pass type
(mag) Time Alt. Az. Time Alt. Az. Time Alt. Az.
11 Mar 3.9 19:09:53 10° SSE 19:13:44 37° E 19:17:36 10° NNE visible
11 Mar 6.4 20:48:31 10° WSW 20:51:10 16° WNW 20:53:51 10° NNW visible
12 Mar 3.4 19:18:22 10° S 19:22:29 58° E 19:26:37 10° NNE visible
12 Mar 6.9 20:59:10 10° W 21:00:11 11° WNW 21:01:12 10° NW visible
13 Mar 6.8 05:25:38 10° NE 05:27:38 13° ENE 05:29:38 10° E visible
13 Mar 3.4 19:27:05 10° S 19:31:16 87° W 19:35:29 10° N visible
14 Mar 6.6 05:33:31 10° NNE 05:36:37 19° ENE 05:39:43 10° ESE visible
14 Mar 4.2 19:36:00 10° SSW 19:40:06 55° W 19:44:14 10° N visible
15 Mar 5.8 05:41:50 10° NNE 05:45:33 29° ENE 05:49:17 10° SE visible
15 Mar 5.2 19:45:08 10° SW 19:48:58 35° WNW 19:52:50 10° N visible
16 Mar 4.9 05:50:21 10° N 05:54:27 44° ENE 05:58:32 10° SSE visible
16 Mar 6.0 19:54:31 10° SW 19:57:53 23° WNW 20:01:16 10° NNW visible
17 Mar 3.9 05:59:02 10° N 06:03:17 70° E 06:07:33 10° SSE visible
17 Mar 6.7 20:04:17 10° WSW 20:06:50 16° WNW 20:09:24 10° NW visible
18 Mar 7.2 20:15:18 10° WNW 20:15:50 10° WNW 20:16:23 10° WNW visible
19 Mar 6.9 04:41:06 10° NE 04:43:18 14° ENE 04:45:31 10° ESE visible
20 Mar 6.3 04:49:03 10° NNE 04:52:17 20° ENE 04:55:30 10° ESE visible
20 Mar 4.5 18:51:39 10° SSW 18:55:43 52° W 18:59:50 10° N visible
